This is the latest recevied weather packets stored in our database for station/object N3SW-13. If no packets are shown the sender has not sent any weather packets the latest 10 day(s).
| Time | Temp. | Humidity | Pressure | Rain* | Wind** | Luminosity | Snow |
|---|---|---|---|---|---|---|---|
| 1777438829 | 13.33° C | 93% | 1015 hPa | 0 mm | - | - | - |
| 1777429819 | 13.89° C | 91% | 1017.2 hPa | 0 mm | - | - | - |
| 1777428918 | 13.89° C | 91% | 1017.3 hPa | 0 mm | - | - | - |
| 1777423533 | 15.56° C | 88% | 1015.2 hPa | 0 mm | - | - | - |
| 1777416309 | 17.78° C | 81% | 1014.5 hPa | 0 mm | - | - | - |
| 1777415408 | 17.78° C | 80% | 1014.6 hPa | 0 mm | - | - | - |
| 1777411804 | 18.89° C | 78% | 1015 hPa | 0 mm | - | - | - |
| 1777410003 | 18.89° C | 78% | 1014.4 hPa | 0 mm | - | - | - |
| 1777406459 | 20° C | 75% | 1015.2 hPa | 0 mm | - | - | - |
| 1777401946 | 18.33° C | 80% | 1016.3 hPa | 0 mm | - | - | - |
| 1777401046 | 17.78° C | 81% | 1016.4 hPa | 0 mm | - | - | - |
| 1777400140 | 17.78° C | 82% | 1016.6 hPa | 0 mm | - | - | - |
| 1777398334 | 16.11° C | 84% | 1017 hPa | 0 mm | - | - | - |
| 1777397430 | 15.56° C | 85% | 1017.4 hPa | 0 mm | - | - | - |
| 1777396528 | 15.56° C | 86% | 1017.6 hPa | 0 mm | - | - | - |
| 1777392916 | 13.89° C | 89% | 1018.1 hPa | 0 mm | - | - | - |
| 1777391111 | 13.33° C | 91% | 1018.2 hPa | 0 mm | - | - | - |
| 1777383907 | 10.56° C | 95% | 1018.6 hPa | 0 mm | - | - | - |
| 1777379458 | 9.44° C | 95% | 1019.8 hPa | 0.25 mm | - | - | - |
| 1777371358 | 8.89° C | 92% | 1022 hPa | 1.02 mm | - | - | - |
| 1777368644 | 9.44° C | 91% | 1021.9 hPa | 0.25 mm | - | - | - |
| 1777366838 | 10° C | 88% | 1020 hPa | 0.25 mm | - | - | - |
| 1777361428 | 11.11° C | 77% | 1021.2 hPa | 0 mm | - | - | - |
| 1777359627 | 11.11° C | 76% | 1020.7 hPa | 0 mm | - | - | - |
| 1777356027 | 12.22° C | 72% | 1021.8 hPa | 0 mm | - | - | - |
* Rain latest hour (hover to see other rain measurements)
** Current wind speed in m/s (hover to see current wind gust speed)